| time (UTC) | temp C | wind direction | speed KPH | gust KPH | rain 1hr cm | rain 24hr cm | rain mn cm | humidity % | barometer mb |
| 20260507141521 | 15 | 60 | 12.9 | 25.7 | 0.00 | 0.00 | 0.00 | 73 | 1013.5 |
| 20260507140023 | 15 | 124 | 14.5 | 33.8 | 0.00 | 0.00 | 0.00 | 74 | 1013.5 |
| 20260507134507 | 16 | 139 | 14.5 | 27.4 | 0.00 | 0.00 | 0.00 | 72 | 1013.9 |
| 20260507130021 | 15 | 139 | 16.1 | 27.4 | 0.00 | 0.00 | 0.00 | 71 | 1013.7 |
| 20260507124534 | 16 | 89 | 16.1 | 27.4 | 0.00 | 0.00 | 0.00 | 68 | 1014.3 |
| 20260507121516 | 16 | 109 | 17.7 | 29.0 | 0.00 | 0.00 | 0.00 | 66 | 1014.1 |
| 20260507120007 | 16 | 98 | 16.1 | 27.4 | 0.00 | 0.00 | 0.00 | 65 | 1013.7 |
| 20260507113027 | 15 | 87 | 19.3 | 35.4 | 0.00 | 0.00 | 0.00 | 61 | 1013.9 |
| 20260507111512 | 16 | 68 | 20.9 | 41.8 | 0.00 | 0.00 | 0.00 | 58 | 1014.2 |
| 20260507110018 | 16 | 88 | 22.5 | 35.4 | 0.00 | 0.00 | 0.00 | 57 | 1014.5 |
| 20260507104504 | 17 | 58 | 16.1 | 29.0 | 0.00 | 0.00 | 0.00 | 55 | 1014.4 |
| 20260507103004 | 16 | 85 | 24.1 | 35.4 | 0.00 | 0.00 | 0.00 | 54 | 1014.5 |
| 20260507101516 | 16 | 101 | 29.0 | 45.1 | 0.00 | 0.00 | 0.00 | 53 | 1014.3 |
| 20260507100016 | 16 | 96 | 25.7 | 40.2 | 0.00 | 0.00 | 0.00 | 50 | 1014.6 |
| 20260507094521 | 16 | 79 | 27.4 | 46.7 | 0.00 | 0.00 | 0.00 | 48 | 1014.8 |
| 20260507093004 | 16 | 93 | 20.9 | 43.5 | 0.00 | 0.00 | 0.00 | 47 | 1014.8 |
| 20260507091508 | 16 | 108 | 20.9 | 40.2 | 0.00 | 0.00 | 0.00 | 46 | 1014.9 |
| 20260507090013 | 16 | 135 | 22.5 | 38.6 | 0.00 | 0.00 | 0.00 | 47 | 1015.0 |
| 20260507084517 | 15 | 108 | 24.1 | 38.6 | 0.00 | 0.00 | 0.00 | 49 | 1015.1 |
| 20260507073017 | 14 | 134 | 24.1 | 40.2 | 0.00 | 0.00 | 0.00 | 58 | 1014.8 |
| 20260507071520 | 15 | 117 | 19.3 | 33.8 | 0.00 | 0.00 | 0.00 | 52 | 1014.9 |
| 20260507063020 | 14 | 122 | 17.7 | 33.8 | 0.00 | 0.00 | 0.00 | 45 | 1015.0 |
| 20260507061521 | 13 | 118 | 19.3 | 35.4 | 0.00 | 0.00 | 0.00 | 46 | 1014.9 |
| 20260507060022 | 13 | 101 | 16.1 | 27.4 | 0.00 | 0.00 | 0.00 | 45 | 1014.7 |
| 20260507054506 | 13 | 114 | 16.1 | 32.2 | 0.00 | 0.00 | 0.00 | 44 | 1014.6 |
| 20260507053014 | 13 | 74 | 17.7 | 30.6 | 0.00 | 0.00 | 0.00 | 43 | 1014.5 |
| 20260507050027 | 13 | 58 | 12.9 | 24.1 | 0.00 | 0.00 | 0.00 | 45 | 1014.7 |
| 20260507044525 | 12 | 96 | 12.9 | 20.9 | 0.00 | 0.00 | 0.00 | 44 | 1014.9 |
| 20260507043019 | 12 | 88 | 12.9 | 22.5 | 0.00 | 0.00 | 0.00 | 44 | 1014.7 |
| 20260507041514 | 12 | 131 | 9.7 | 20.9 | 0.00 | 0.00 | 0.00 | 43 | 1015.1 |
| 20260507040019 | 12 | 90 | 11.3 | 25.7 | 0.00 | 0.00 | 0.00 | 45 | 1015.2 |
| 20260507034523 | 12 | 75 | 12.9 | 22.5 | 0.00 | 0.00 | 0.00 | 47 | 1015.2 |
| 20260507033026 | 12 | 72 | 12.9 | 22.5 | 0.00 | 0.00 | 0.00 | 46 | 1015.6 |
| 20260507031512 | 12 | 63 | 6.4 | 17.7 | 0.00 | 0.00 | 0.00 | 45 | 1015.8 |
| 20260507030021 | 12 | 154 | 9.7 | 19.3 | 0.00 | 0.00 | 0.00 | 42 | 1015.7 |
| 20260507024459 | 12 | 79 | 8.0 | 17.7 | 0.00 | 0.00 | 0.00 | 42 | 1015.8 |
| 20260507023001 | 12 | 65 | 8.0 | 17.7 | 0.00 | 0.00 | 0.00 | 42 | 1015.9 |
| 20260507021500 | 12 | 104 | 8.0 | 19.3 | 0.00 | 0.00 | 0.00 | 43 | 1015.9 |
| 20260507020003 | 13 | 98 | 8.0 | 19.3 | 0.00 | 0.00 | 0.00 | 43 | 1015.8 |
| 20260507014500 | 13 | 98 | 9.7 | 17.7 | 0.00 | 0.00 | 0.00 | 43 | 1015.7 |
| 20260507012959 | 12 | 63 | 8.0 | 14.5 | 0.00 | 0.00 | 0.00 | 43 | 1015.6 |
| 20260507011500 | 12 | 152 | 4.8 | 12.9 | 0.00 | 0.00 | 0.00 | 46 | 1015.9 |
| 20260507010004 | 12 | 34 | 9.7 | 17.7 | 0.00 | 0.00 | 0.00 | 45 | 1016.0 |
| 20260507004502 | 12 | 75 | 6.4 | 19.3 | 0.00 | 0.00 | 0.00 | 48 | 1016.3 |
| 20260507003000 | 12 | 39 | 3.2 | 11.3 | 0.00 | 0.00 | 0.00 | 51 | 1016.2 |
| 20260507001505 | 12 | 57 | 4.8 | 8.0 | 0.00 | 0.00 | 0.00 | 52 | 1016.3 |
| 20260507000000 | 12 | 68 | 3.2 | 11.3 | 0.00 | 0.00 | 0.00 | 50 | 1016.7 |
| 20260506234500 | 12 | 60 | 6.4 | 14.5 | 0.00 | 0.00 | 0.00 | 50 | 1016.6 |
| 20260506233003 | 12 | 63 | 4.8 | 12.9 | 0.00 | 0.00 | 0.00 | 50 | 1016.7 |
| 20260506231501 | 12 | 65 | 4.8 | 9.7 | 0.00 | 0.00 | 0.00 | 51 | 1017.2 |
| 20260506230000 | 12 | 49 | 1.6 | 9.7 | 0.00 | 0.00 | 0.00 | 50 | 1017.4 |
| 20260506224500 | 12 | 100 | 4.8 | 11.3 | 0.00 | 0.00 | 0.00 | 48 | 1017.5 |
| 20260506223002 | 12 | 97 | 4.8 | 8.0 | 0.00 | 0.00 | 0.00 | 48 | 1017.4 |
| 20260506221504 | 12 | 66 | 4.8 | 9.7 | 0.00 | 0.00 | 0.00 | 48 | 1017.4 |
| 20260506220003 | 12 | 32 | 4.8 | 9.7 | 0.00 | 0.00 | 0.00 | 50 | 1017.2 |
| 20260506214502 | 13 | 75 | 3.2 | 8.0 | 0.00 | 0.00 | 0.00 | 50 | 1017.5 |
| 20260506213002 | 13 | 60 | 3.2 | 8.0 | 0.00 | 0.00 | 0.00 | 53 | 1017.6 |
| 20260506210007 | 13 | 43 | 6.4 | 11.3 | 0.00 | 0.00 | 0.00 | 54 | 1017.6 |
| 20260506204502 | 13 | 78 | 4.8 | 9.7 | 0.00 | 0.00 | 0.00 | 57 | 1017.3 |
| 20260506203001 | 13 | 64 | 4.8 | 12.9 | 0.00 | 0.00 | 0.00 | 58 | 1017.6 |
| 20260506201503 | 13 | 26 | 4.8 | 9.7 | 0.00 | 0.00 | 0.00 | 58 | 1017.3 |
| 20260506200004 | 13 | 79 | 3.2 | 16.1 | 0.00 | 0.00 | 0.00 | 55 | 1017.3 |
| 20260506194506 | 13 | 76 | 9.7 | 19.3 | 0.00 | 0.00 | 0.00 | 54 | 1016.5 |
| 20260506193002 | 13 | 73 | 6.4 | 12.9 | 0.00 | 0.00 | 0.00 | 59 | 1016.6 |
| 20260506191507 | 13 | 56 | 6.4 | 19.3 | 0.00 | 0.00 | 0.00 | 63 | 1016.6 |
| 20260506190002 | 13 | 56 | 12.9 | 22.5 | 0.00 | 0.00 | 0.00 | 66 | 1015.5 |
| 20260506184504 | 13 | 75 | 9.7 | 14.5 | 0.00 | 0.00 | 0.00 | 72 | 1015.8 |
| 20260506183005 | 13 | 88 | 6.4 | 17.7 | 0.00 | 0.00 | 0.00 | 75 | 1016.2 |
| 20260506181502 | 13 | 75 | 3.2 | 8.0 | 0.00 | 0.00 | 0.00 | 75 | 1016.8 |
| 20260506180003 | 13 | 96 | 3.2 | 6.4 | 0.00 | 0.00 | 0.00 | 76 | 1017.2 |
| 20260506174502 | 13 | 148 | 4.8 | 9.7 | 0.00 | 0.00 | 0.00 | 76 | 1017.5 |
| 20260506173004 | 14 | 107 | 4.8 | 11.3 | 0.00 | 0.00 | 0.00 | 76 | 1017.5 |
| 20260506171504 | 15 | 150 | 8.0 | 14.5 | 0.00 | 0.00 | 0.00 | 74 | 1017.3 |
| 20260506170002 | 15 | 114 | 4.8 | 9.7 | 0.00 | 0.00 | 0.00 | 73 | 1016.8 |
| 20260506164513 | 16 | 113 | 3.2 | 9.7 | 0.00 | 0.00 | 0.00 | 73 | 1017.1 |
| 20260506163006 | 16 | 146 | 4.8 | 11.3 | 0.00 | 0.00 | 0.00 | 71 | 1017.0 |
| 20260506161504 | 16 | 87 | 4.8 | 11.3 | 0.00 | 0.00 | 0.00 | 71 | 1017.0 |
| 20260506160005 | 16 | 113 | 6.4 | 12.9 | 0.00 | 0.00 | 0.00 | 68 | 1017.5 |
| 20260506154508 | 17 | 172 | 8.0 | 12.9 | 0.00 | 0.00 | 0.00 | 65 | 1017.9 |
| 20260506153002 | 17 | 153 | 9.7 | 14.5 | 0.00 | 0.00 | 0.00 | 64 | 1018.0 |
| 20260506151502 | 17 | 119 | 6.4 | 11.3 | 0.00 | 0.00 | 0.00 | 59 | 1017.8 |
| 20260506150004 | 18 | 148 | 6.4 | 11.3 | 0.00 | 0.00 | 0.00 | 57 | 1018.0 |
| 20260506144521 | 18 | 126 | 6.4 | 12.9 | 0.00 | 0.00 | 0.00 | 57 | 1018.1 |
| 20260506143012 | 18 | 104 | 4.8 | 12.9 | 0.00 | 0.00 | 0.00 | 53 | 1018.1 |